DW5868 Weather Reports


time (UTC)temp
C
wind
direction
speed
KPH
gust
KPH
rain 1hr
cm
rain 24hr
cm
rain mn
cm
humidity
%
barometer
mb
20260903154521 11 323 9.7 22.5 0.00 0.00 0.00 36 1009.6
20260903153018 10 277 11.3 32.2 0.00 0.00 0.00 36 1009.5
20260903150017 10 256 9.7 22.5 0.00 0.00 0.00 36 1009.6
20260903144532 9 304 12.9 27.4 0.00 0.00 0.00 37 1009.3
20260903143015 8 287 11.3 30.6 0.00 0.00 0.00 37 1009.0
20260903140014 -17 0.0 0.0 0.00 0.00 0.00 1008.3
20260903134509 -17 0.0 0.0 0.00 0.00 0.00 1008.2
20260903133013 -17 0.0 0.0 0.00 0.00 0.00 1008.2
20260903130059 -17 0.0 0.0 0.00 0.00 0.00 1008.6
20260903124555 -17 0.0 0.0 0.00 0.00 0.00 1008.9
20260903123054 -17 0.0 0.0 0.00 0.00 0.00 1009.2
20260903120046 8 292 11.3 27.4 0.00 0.00 0.00 26 1010.0
20260903114548 8 308 8.0 22.5 0.00 0.00 0.00 27 1010.0
20260903113047 8 256 4.8 19.3 0.00 0.00 0.00 25 1010.2
20260903110045 8 275 6.4 16.1 0.00 0.00 0.00 30 1010.3
20260903104553 8 296 9.7 27.4 0.00 0.00 0.00 33 1010.2
20260903103042 8 267 11.3 20.9 0.00 0.00 0.00 32 1010.3
20260903100044 8 284 4.8 20.9 0.00 0.00 0.00 33 1010.2
20260903094536 8 231 11.3 22.5 0.00 0.00 0.00 34 1010.0
20260903093036 8 171 4.8 25.7 0.00 0.00 0.00 36 1010.2
20260903090033 8 280 9.7 24.1 0.00 0.00 0.00 40 1011.0
20260903084531 8 261 11.3 27.4 0.00 0.00 0.00 41 1011.0
20260903083028 8 313 6.4 25.7 0.00 0.00 0.00 43 1010.9
20260903080023 10 188 3.2 16.1 0.00 0.00 0.00 38 1010.4
20260903074520 10 234 4.8 20.9 0.00 0.00 0.00 38 1010.5
20260903073024 8 271 12.9 29.0 0.00 0.00 0.00 41 1010.2
20260903070017 8 264 8.0 29.0 0.00 0.00 0.00 48 1010.8
20260903064516 8 275 11.3 37.0 0.00 0.00 0.00 50 1011.2
20260903063017 8 277 11.3 35.4 0.00 0.00 0.00 49 1011.5
20260903060018 8 246 14.5 32.2 0.00 0.00 0.00 52 1011.7
20260903054520 8 273 12.9 22.5 0.00 0.00 0.00 54 1011.9
20260903053017 8 287 6.4 24.1 0.00 0.00 0.00 54 1012.1
20260903050017 7 257 11.3 24.1 0.00 0.00 0.00 58 1012.2
20260903044512 7 267 8.0 24.1 0.00 0.00 0.00 59 1012.1
20260903043016 7 261 8.0 22.5 0.00 0.00 0.00 60 1012.1
20260903040015 7 259 11.3 22.5 0.00 0.00 0.00 62 1012.1
20260903034512 7 250 6.4 17.7 0.00 0.00 0.00 61 1012.1
20260903033011 7 289 4.8 19.3 0.00 0.00 0.00 59 1012.1
20260903030019 8 250 0.0 11.3 0.00 0.00 0.00 56 1012.0
20260903024511 8 219 4.8 14.5 0.00 0.00 0.00 54 1011.8
20260903023010 8 205 1.6 16.1 0.00 0.00 0.00 52 1011.9
20260903020019 9 259 3.2 12.9 0.00 0.00 0.00 48 1011.6
20260903014507 10 283 8.0 25.7 0.00 0.00 0.00 47 1011.4
20260903013006 10 276 4.8 24.1 0.00 0.00 0.00 46 1011.5
20260903010008 12 267 4.8 22.5 0.00 0.00 0.00 41 1011.6
20260903004510 12 306 3.2 16.1 0.00 0.00 0.00 39 1011.5
20260903003006 13 287 3.2 14.5 0.00 0.00 0.00 40 1011.5
20260903000010 12 292 14.5 32.2 0.00 0.00 0.00 39 1011.7
20260902234508 12 286 11.3 38.6 0.00 0.00 0.00 40 1011.8
20260902233004 12 276 11.3 30.6 0.00 0.00 0.00 40 1011.7
20260902230010 12 279 11.3 38.6 0.00 0.00 0.00 40 1011.4
20260902224510 13 267 3.2 22.5 0.00 0.00 0.00 41 1011.5
20260902223019 13 242 8.0 22.5 0.00 0.00 0.00 39 1011.5
20260902220003 13 254 8.0 17.7 0.00 0.00 0.00 39 1011.5
20260902214506 13 243 6.4 27.4 0.00 0.00 0.00 39 1011.6
20260902213002 13 255 11.3 41.8 0.00 0.00 0.00 38 1011.5
20260902210004 13 218 11.3 32.2 0.00 0.00 0.00 39 1011.4
20260902204600 13 253 3.2 51.5 0.00 0.00 0.00 40 1011.3
20260902203059 12 305 8.0 38.6 0.00 0.00 0.00 41 1011.3
20260902200058 12 140 12.9 37.0 0.00 0.00 0.00 39 1011.3
20260902194557 12 281 8.0 19.3 0.00 0.00 0.00 39 1011.4
20260902193058 12 117 8.0 29.0 0.00 0.00 0.00 40 1011.1
20260902190054 12 276 9.7 33.8 0.00 0.00 0.00 39 1011.3
20260902184553 12 295 11.3 27.4 0.00 0.00 0.00 37 1011.1
20260902183102 12 278 12.9 30.6 0.00 0.00 0.00 37 1010.9
20260902180057 13 15 6.4 24.1 0.00 0.00 0.00 35 1011.1
20260902174558 13 263 4.8 17.7 0.00 0.00 0.00 35 1011.1
20260902173114 12 276 3.2 25.7 0.00 0.00 0.00 37 1010.8
20260902170040 10 297 4.8 24.1 0.00 0.00 0.00 42 1010.9
20260902164539 10 302 11.3 25.7 0.00 0.00 0.00 41 1010.7
20260902163038 10 275 4.8 24.1 0.00 0.00 0.00 42 1010.8
20260902160049 7 221 12.9 33.8 0.00 0.00 0.00 45 1010.8